Simultaneous Nadir Overpasses (SNOs) Predictions

Prediction of SNOs between GOES-15 and LANDSAT-8 Satellite Orbit:

Table of predicted SNOs for the next 14.0 days since TLE Epoch: 2/5/2022
Index Date Time (GOES-15) GOES-15 Lat,Lon LANDSAT-8 Lat,Lon Distance(km) Time Diff (sec)
1 02/06/2022 18:45:33 -0.00,-128.20 -0.08,-127.94 29.68 80
2 02/08/2022 18:33:21 0.00,-128.17 -0.70,-124.98 362.85 80
3 02/09/2022 06:54:44 -0.00,-128.13 -0.40,-130.18 231.35 80
4 02/11/2022 06:39:52 -0.00,-128.10 0.17,-127.21 101.37 80
5 02/11/2022 19:01:07 0.01,-128.12 0.89,-132.37 483.06 80
6 02/13/2022 06:27:40 -0.01,-128.06 0.81,-124.25 433.50 80
7 02/13/2022 18:48:54 0.01,-128.08 0.31,-129.40 151.03 80
8 02/15/2022 18:39:22 0.01,-128.04 -0.34,-126.45 180.63 80
9 02/16/2022 07:00:46 -0.01,-128.00 -0.76,-131.64 413.76 80
10 02/18/2022 06:48:33 -0.01,-127.95 -0.15,-128.68 82.48 80
